QPF
0.00 0.01 0.01 0.01 0.02 0.04 0.06 0.07 0.09 0.07 0.02 0.01 0.01 0.00 0.01 0.01 0.02 0.04 0.04 0.03 0.01 0.00 0.00 0.00 0.00 0.00 0.00 0.00 0.00 0.00 0.00 0.01 0.02 0.03 0.04 0.05 0.05 0.05 0.04 0.03 0.03 0.03 0.03 0.03 0.04 0.04 0.05 0.06 0.09
0.00 0.01 0.01 0.01 0.03 0.03 0.06 0.08 0.12 0.06 0.01 0.01 0.01 0.00 0.00 0.01 0.01 0.03 0.05 0.02 0.01 0.00 0.00 0.00 0.00 0.00 0.00 0.00 0.00 0.01 0.00 0.01 0.02 0.02 0.02 0.03 0.03 0.03 0.02 0.02 0.01 0.01 0.02 0.03 0.04 0.07 0.12 0.16 0.15
0.00 0.01 0.01 0.02 0.04 0.03 0.07 0.06 0.05 0.02 0.01 0.01 0.01 0.00 0.00 0.01 0.01 0.02 0.03 0.01 0.01 0.01 0.00 0.00 0.00 0.00 0.00 0.00 0.00 0.00 0.00 0.01 0.01 0.02 0.02 0.02 0.02 0.02 0.02 0.01 0.02 0.02 0.02 0.02 0.04 0.07 0.10 0.11 0.14
0.00 0.01 0.01 0.02 0.02 0.01 0.03 0.04 0.05 0.03 0.01 0.01 0.01 0.01 0.00 0.00 0.00 0.01 0.01 0.00 0.00 0.00 0.00 0.00 0.00 0.00 0.00 0.00 0.01 0.00 0.00 0.00 0.01 0.01 0.01 0.01 0.01 0.01 0.01 0.01 0.02 0.02 0.02 0.02 0.01 0.02 0.03 0.09 0.13
0.01 0.02 0.01 0.01 0.01 0.01 0.02 0.03 0.04 0.02 0.01 0.01 0.01 0.02 0.02 0.01 0.00 0.01 0.01 0.01 0.00 0.00 0.00 0.00 0.00 0.00 0.00 0.00 0.00 0.00 0.00 0.00 0.00 0.00 0.00 0.00 0.01 0.01 0.01 0.01 0.01 0.02 0.03 0.02 0.02 0.02 0.04 0.07 0.08
0.02 0.02 0.04 0.02 0.01 0.01 0.01 0.02 0.02 0.01 0.01 0.01 0.00 0.01 0.04 0.01 0.00 0.00 0.01 0.00 0.00 0.00 0.00 0.00 0.00 0.00 0.00 0.00 0.01 0.00 0.00 0.00 0.00 0.00 0.00 0.00 0.01 0.02 0.01 0.01 0.02 0.02 0.03 0.02 0.02 0.06 0.07 0.04 0.04
0.01 0.02 0.03 0.02 0.02 0.02 0.02 0.03 0.02 0.01 0.01 0.01 0.01 0.03 0.04 0.02 0.01 0.01 0.01 0.00 0.00 0.00 0.00 0.00 0.00 0.00 0.00 0.01 0.01 0.01 0.01 0.00 0.01 0.01 0.02 0.01 0.02 0.02 0.03 0.04 0.03 0.02 0.02 0.02 0.03 0.09 0.13 0.06 0.04
0.00 0.01 0.01 0.02 0.01 0.01 0.01 0.01 0.01 0.01 0.01 0.01 0.01 0.03 0.04 0.03 0.02 0.01 0.01 0.01 0.01 0.01 0.01 0.01 0.00 0.00 0.00 0.00 0.01 0.01 0.01 0.01 0.01 0.01 0.02 0.01 0.02 0.05 0.05 0.05 0.05 0.05 0.04 0.03 0.02 0.08 0.15 0.12 0.07
0.00 0.00 0.00 0.01 0.01 0.00 0.01 0.02 0.01 0.01 0.00 0.01 0.01 0.03 0.03 0.02 0.02 0.02 0.03 0.03 0.03 0.02 0.02 0.01 0.01 0.00 0.00 0.00 0.01 0.01 0.02 0.02 0.02 0.02 0.03 0.03 0.07 0.14 0.07 0.06 0.08 0.06 0.05 0.05 0.03 0.04 0.08 0.12 0.11
0.00 0.00 0.01 0.01 0.00 0.00 0.01 0.02 0.01 0.01 0.00 0.01 0.03 0.04 0.03 0.03 0.02 0.04 0.04 0.04 0.04 0.05 0.10 0.07 0.03 0.01 0.00 0.01 0.01 0.01 0.02 0.02 0.03 0.04 0.05 0.09 0.17 0.15 0.06 0.07 0.09 0.07 0.05 0.06 0.04 0.03 0.04 0.06 0.07
0.00 0.00 0.00 0.01 0.00 0.00 0.01 0.01 0.01 0.01 0.02 0.02 0.05 0.08 0.06 0.04 0.03 0.04 0.03 0.04 0.04 0.04 0.08 0.09 0.07 0.02 0.01 0.01 0.02 0.02 0.02 0.02 0.03 0.05 0.06 0.10 0.17 0.13 0.06 0.04 0.06 0.08 0.06 0.06 0.05 0.03 0.04 0.03 0.03
0.00 0.00 0.00 0.00 0.00 0.00 0.01 0.01 0.01 0.02 0.02 0.04 0.06 0.09 0.10 0.09 0.08 0.06 0.06 0.06 0.03 0.03 0.04 0.03 0.02 0.02 0.02 0.01 0.01 0.02 0.02 0.02 0.03 0.03 0.03 0.03 0.10 0.12 0.04 0.02 0.04 0.05 0.05 0.04 0.04 0.04 0.03 0.03 0.04
0.00 0.00 0.00 0.00 0.00 0.00 0.00 0.00 0.00 0.01 0.01 0.03 0.04 0.05 0.09 0.11 0.09 0.10 0.10 0.07 0.05 0.03 0.04 0.04 0.02 0.02 0.01 0.01 0.01 0.02 0.02 0.02 0.03 0.02 0.01 0.01 0.05 0.04 0.01 0.01 0.02 0.03 0.03 0.03 0.03 0.04 0.03 0.04 0.05
0.00 0.00 0.00 0.00 0.00 0.00 0.00 0.00 0.00 0.01 0.01 0.02 0.03 0.03 0.03 0.06 0.07 0.09 0.08 0.06 0.06 0.06 0.06 0.05 0.02 0.02 0.02 0.01 0.01 0.01 0.02 0.02 0.02 0.02 0.00 0.01 0.01 0.02 0.02 0.02 0.02 0.03 0.03 0.02 0.02 0.03 0.02 0.03 0.04
0.00 0.00 0.00 0.00 0.00 0.00 0.00 0.00 0.00 0.01 0.01 0.01 0.01 0.01 0.02 0.04 0.06 0.08 0.09 0.09 0.09 0.08 0.07 0.05 0.02 0.01 0.02 0.02 0.02 0.02 0.02 0.01 0.01 0.01 0.01 0.01 0.01 0.01 0.02 0.02 0.02 0.02 0.01 0.01 0.01 0.02 0.02 0.03 0.02
0.00 0.00 0.00 0.00 0.00 0.00 0.00 0.01 0.01 0.01 0.01 0.00 0.00 0.00 0.01 0.03 0.05 0.07 0.08 0.10 0.09 0.07 0.04 0.03 0.01 0.01 0.02 0.03 0.03 0.04 0.03 0.02 0.02 0.02 0.01 0.01 0.01 0.01 0.02 0.02 0.01 0.02 0.02 0.01 0.01 0.01 0.02 0.03 0.02
0.00 0.00 0.00 0.00 0.00 0.00 0.01 0.01 0.00 0.01 0.00 0.00 0.00 0.00 0.01 0.03 0.05 0.05 0.06 0.08 0.08 0.05 0.03 0.02 0.01 0.01 0.01 0.02 0.02 0.03 0.03 0.02 0.01 0.02 0.02 0.02 0.02 0.02 0.02 0.01 0.01 0.01 0.02 0.02 0.01 0.01 0.02 0.02 0.02
0.00 0.00 0.00 0.00 0.00 0.00 0.00 0.00 0.00 0.00 0.00 0.00 0.01 0.01 0.01 0.03 0.04 0.05 0.05 0.05 0.04 0.03 0.02 0.02 0.01 0.01 0.02 0.03 0.02 0.01 0.01 0.01 0.01 0.01 0.01 0.02 0.03 0.03 0.03 0.02 0.02 0.03 0.03 0.03 0.02 0.01 0.01 0.02 0.03
0.00 0.00 0.00 0.00 0.00 0.00 0.01 0.00 0.00 0.00 0.00 0.00 0.00 0.01 0.01 0.02 0.03 0.04 0.03 0.03 0.03 0.02 0.02 0.02 0.01 0.01 0.01 0.01 0.02 0.01 0.01 0.01 0.01 0.01 0.01 0.02 0.02 0.02 0.04 0.04 0.04 0.04 0.04 0.04 0.03 0.02 0.02 0.02 0.04
0.00 0.00 0.00 0.00 0.00 0.00 0.01 0.01 0.01 0.01 0.01 0.01 0.00 0.00 0.01 0.02 0.02 0.01 0.01 0.01 0.01 0.02 0.02 0.01 0.01 0.01 0.01 0.00 0.00 0.01 0.01 0.01 0.01 0.01 0.01 0.02 0.02 0.02 0.03 0.05 0.05 0.05 0.04 0.04 0.05 0.04 0.03 0.03 0.04
0.00 0.00 0.00 0.00 0.00 0.00 0.00 0.01 0.01 0.01 0.01 0.00 0.00 0.00 0.00 0.02 0.04 0.02 0.01 0.01 0.01 0.01 0.01 0.01 0.00 0.00 0.01 0.00 0.00 0.00 0.01 0.01 0.01 0.01 0.01 0.01 0.02 0.02 0.02 0.03 0.03 0.04 0.04 0.03 0.03 0.03 0.04 0.05 0.05
0.00 0.00 0.00 0.00 0.00 0.01 0.01 0.01 0.02 0.01 0.02 0.01 0.01 0.01 0.00 0.02 0.04 0.03 0.01 0.00 0.00 0.00 0.01 0.01 0.00 0.00 0.01 0.01 0.00 0.00 0.01 0.01 0.01 0.01 0.01 0.01 0.01 0.02 0.02 0.02 0.03 0.03 0.03 0.02 0.02 0.02 0.03 0.05 0.05
0.00 0.00 0.00 0.00 0.01 0.01 0.01 0.01 0.03 0.02 0.04 0.03 0.01 0.01 0.01 0.01 0.02 0.02 0.01 0.01 0.00 0.00 0.00 0.01 0.01 0.01 0.01 0.01 0.01 0.01 0.02 0.01 0.01 0.01 0.01 0.01 0.01 0.02 0.01 0.01 0.02 0.02 0.02 0.02 0.03 0.04 0.05 0.04 0.03
0.00 0.00 0.00 0.00 0.00 0.00 0.01 0.01 0.02 0.02 0.02 0.01 0.01 0.01 0.01 0.01 0.02 0.02 0.03 0.03 0.01 0.01 0.01 0.02 0.02 0.02 0.03 0.02 0.02 0.02 0.01 0.01 0.01 0.01 0.01 0.01 0.01 0.02 0.02 0.02 0.03 0.02 0.02 0.02 0.03 0.04 0.04 0.04 0.04
0.00 0.00 0.01 0.02 0.01 0.01 0.01 0.00 0.03 0.07 0.03 0.01 0.01 0.01 0.01 0.01 0.02 0.03 0.04 0.05 0.03 0.02 0.02 0.03 0.03 0.03 0.03 0.02 0.02 0.02 0.01 0.01 0.01 0.01 0.01 0.01 0.01 0.01 0.01 0.02 0.02 0.02 0.02 0.02 0.03 0.03 0.03 0.03 0.04
0.00 0.00 0.01 0.03 0.01 0.01 0.00 0.01 0.03 0.04 0.02 0.02 0.02 0.01 0.01 0.01 0.02 0.04 0.04 0.02 0.03 0.04 0.04 0.04 0.03 0.03 0.03 0.02 0.01 0.01 0.01 0.01 0.01 0.01 0.01 0.01 0.01 0.01 0.01 0.01 0.01 0.02 0.03 0.04 0.04 0.03 0.03 0.03 0.04
0.00 0.00 0.01 0.02 0.01 0.01 0.01 0.01 0.02 0.02 0.02 0.02 0.02 0.01 0.01 0.01 0.01 0.01 0.02 0.02 0.03 0.04 0.05 0.05 0.04 0.03 0.02 0.03 0.02 0.02 0.02 0.02 0.02 0.02 0.01 0.01 0.01 0.01 0.02 0.02 0.03 0.03 0.04 0.03 0.03 0.03 0.02 0.03 0.03
0.00 0.00 0.01 0.02 0.01 0.02 0.02 0.02 0.02 0.03 0.04 0.02 0.03 0.02 0.02 0.02 0.02 0.02 0.01 0.02 0.03 0.04 0.06 0.06 0.06 0.05 0.03 0.03 0.03 0.03 0.04 0.04 0.03 0.02 0.01 0.01 0.03 0.04 0.04 0.03 0.04 0.04 0.05 0.05 0.04 0.04 0.04 0.03 0.03
0.00 0.00 0.01 0.01 0.01 0.02 0.02 0.03 0.03 0.05 0.04 0.02 0.01 0.03 0.03 0.03 0.03 0.03 0.02 0.02 0.06 0.07 0.08 0.10 0.10 0.07 0.05 0.04 0.04 0.04 0.04 0.05 0.05 0.05 0.04 0.05 0.04 0.04 0.04 0.03 0.03 0.05 0.05 0.05 0.04 0.04 0.05 0.04 0.03
0.00 0.00 0.01 0.01 0.01 0.02 0.01 0.02 0.02 0.05 0.04 0.02 0.03 0.03 0.03 0.03 0.03 0.03 0.03 0.04 0.10 0.08 0.09 0.15 0.07 0.06 0.05 0.04 0.04 0.04 0.05 0.05 0.04 0.04 0.05 0.04 0.03 0.03 0.02 0.02 0.02 0.04 0.04 0.05 0.05 0.05 0.07 0.06 0.05
MSLP
1009.99 1010.93 1011.99 1012.99 1013.77 1014.23 1014.33 1014.10 1013.65 1013.13 1012.69 1012.46 1012.49 1012.76 1013.22 1013.74 1014.20 1014.50 1014.58 1014.47 1014.21 1013.90 1013.63 1013.47 1013.48 1013.64 1013.89 1014.19 1014.45 1014.66 1014.79 1014.86 1014.91 1014.99 1015.12 1015.32 1015.57 1015.85 1016.11 1016.32 1016.46 1016.53 1016.54 1016.53 1016.52 1016.54 1016.57 1016.63 1016.70
1010.40 1011.49 1012.60 1013.57 1014.23 1014.50 1014.37 1013.92 1013.29 1012.64 1012.13 1011.88 1011.94 1012.27 1012.78 1013.36 1013.87 1014.22 1014.37 1014.33 1014.16 1013.94 1013.77 1013.71 1013.79 1013.99 1014.27 1014.57 1014.83 1015.03 1015.16 1015.23 1015.30 1015.39 1015.52 1015.70 1015.92 1016.15 1016.35 1016.51 1016.60 1016.64 1016.65 1016.64 1016.65 1016.68 1016.73 1016.79 1016.84
1010.89 1012.08 1013.22 1014.10 1014.61 1014.69 1014.36 1013.73 1012.96 1012.24 1011.71 1011.48 1011.58 1011.96 1012.52 1013.14 1013.67 1014.05 1014.23 1014.24 1014.14 1014.01 1013.93 1013.96 1014.11 1014.36 1014.66 1014.96 1015.22 1015.40 1015.51 1015.58 1015.64 1015.71 1015.83 1015.98 1016.16 1016.34 1016.49 1016.59 1016.65 1016.68 1016.69 1016.71 1016.74 1016.80 1016.87 1016.93 1016.99
1011.47 1012.71 1013.79 1014.57 1014.93 1014.83 1014.35 1013.60 1012.76 1012.03 1011.53 1011.36 1011.52 1011.95 1012.54 1013.15 1013.68 1014.04 1014.21 1014.24 1014.19 1014.13 1014.13 1014.23 1014.44 1014.73 1015.05 1015.34 1015.57 1015.73 1015.82 1015.86 1015.90 1015.96 1016.05 1016.18 1016.32 1016.44 1016.55 1016.62 1016.66 1016.68 1016.71 1016.76 1016.83 1016.92 1017.01 1017.10 1017.16
1012.11 1013.31 1014.31 1014.95 1015.16 1014.93 1014.35 1013.56 1012.74 1012.07 1011.66 1011.58 1011.82 1012.28 1012.86 1013.44 1013.91 1014.21 1014.35 1014.36 1014.32 1014.30 1014.36 1014.51 1014.77 1015.08 1015.39 1015.66 1015.86 1015.99 1016.05 1016.07 1016.09 1016.13 1016.21 1016.31 1016.42 1016.52 1016.59 1016.64 1016.67 1016.71 1016.76 1016.83 1016.94 1017.06 1017.18 1017.28 1017.35
1012.72 1013.83 1014.70 1015.20 1015.28 1014.97 1014.37 1013.62 1012.90 1012.36 1012.09 1012.13 1012.44 1012.92 1013.47 1013.98 1014.36 1014.57 1014.63 1014.60 1014.55 1014.54 1014.62 1014.80 1015.07 1015.37 1015.66 1015.90 1016.06 1016.15 1016.18 1016.19 1016.20 1016.24 1016.31 1016.41 1016.50 1016.59 1016.65 1016.69 1016.72 1016.77 1016.84 1016.94 1017.08 1017.22 1017.36 1017.46 1017.53
1013.22 1014.19 1014.89 1015.26 1015.25 1014.92 1014.38 1013.76 1013.20 1012.85 1012.76 1012.93 1013.31 1013.80 1014.29 1014.70 1014.96 1015.06 1015.03 1014.94 1014.85 1014.83 1014.91 1015.08 1015.33 1015.60 1015.86 1016.04 1016.16 1016.21 1016.22 1016.22 1016.24 1016.29 1016.38 1016.49 1016.59 1016.68 1016.74 1016.78 1016.82 1016.87 1016.95 1017.07 1017.21 1017.37 1017.50 1017.61 1017.66
1013.52 1014.32 1014.87 1015.12 1015.07 1014.78 1014.36 1013.93 1013.60 1013.47 1013.56 1013.86 1014.30 1014.78 1015.21 1015.51 1015.65 1015.63 1015.51 1015.35 1015.22 1015.17 1015.22 1015.36 1015.57 1015.79 1015.98 1016.10 1016.16 1016.18 1016.17 1016.18 1016.22 1016.30 1016.42 1016.56 1016.68 1016.78 1016.85 1016.89 1016.92 1016.98 1017.06 1017.18 1017.32 1017.47 1017.59 1017.68 1017.72
1013.60 1014.23 1014.64 1014.81 1014.76 1014.57 1014.32 1014.11 1014.03 1014.13 1014.41 1014.83 1015.31 1015.76 1016.11 1016.31 1016.34 1016.22 1016.02 1015.81 1015.64 1015.56 1015.57 1015.67 1015.81 1015.95 1016.06 1016.11 1016.11 1016.09 1016.07 1016.09 1016.16 1016.28 1016.43 1016.60 1016.75 1016.86 1016.93 1016.97 1017.01 1017.06 1017.13 1017.24 1017.37 1017.51 1017.62 1017.69 1017.71
1013.48 1013.96 1014.26 1014.39 1014.40 1014.34 1014.29 1014.32 1014.49 1014.80 1015.24 1015.75 1016.25 1016.67 1016.94 1017.05 1016.99 1016.80 1016.55 1016.31 1016.12 1016.01 1015.98 1016.02 1016.08 1016.14 1016.15 1016.12 1016.06 1016.00 1015.96 1015.98 1016.07 1016.22 1016.40 1016.59 1016.75 1016.87 1016.94 1016.98 1017.01 1017.06 1017.13 1017.24 1017.36 1017.48 1017.58 1017.63 1017.64
1013.24 1013.60 1013.84 1013.98 1014.06 1014.16 1014.32 1014.58 1014.97 1015.46 1016.02 1016.59 1017.08 1017.45 1017.66 1017.69 1017.58 1017.36 1017.10 1016.85 1016.66 1016.53 1016.47 1016.45 1016.43 1016.38 1016.30 1016.18 1016.05 1015.94 1015.88 1015.89 1015.97 1016.12 1016.31 1016.49 1016.65 1016.77 1016.84 1016.87 1016.90 1016.95 1017.03 1017.14 1017.28 1017.40 1017.50 1017.55 1017.55
1013.01 1013.30 1013.50 1013.68 1013.87 1014.13 1014.48 1014.94 1015.50 1016.13 1016.76 1017.33 1017.80 1018.11 1018.27 1018.26 1018.12 1017.91 1017.67 1017.45 1017.27 1017.14 1017.05 1016.96 1016.86 1016.72 1016.54 1016.33 1016.13 1015.96 1015.85 1015.82 1015.88 1016.00 1016.15 1016.31 1016.43 1016.52 1016.58 1016.61 1016.65 1016.72 1016.82 1016.96 1017.13 1017.28 1017.41 1017.48 1017.49
1012.91 1013.16 1013.37 1013.60 1013.90 1014.30 1014.81 1015.43 1016.11 1016.80 1017.46 1018.01 1018.43 1018.69 1018.79 1018.76 1018.64 1018.46 1018.27 1018.09 1017.95 1017.82 1017.70 1017.56 1017.37 1017.14 1016.87 1016.58 1016.30 1016.07 1015.90 1015.81 1015.81 1015.86 1015.94 1016.03 1016.09 1016.14 1016.16 1016.20 1016.25 1016.35 1016.50 1016.69 1016.91 1017.12 1017.30 1017.41 1017.46
1013.05 1013.27 1013.49 1013.78 1014.18 1014.70 1015.34 1016.05 1016.80 1017.51 1018.14 1018.64 1019.00 1019.20 1019.27 1019.24 1019.14 1019.01 1018.88 1018.76 1018.64 1018.52 1018.38 1018.18 1017.93 1017.63 1017.28 1016.92 1016.57 1016.27 1016.03 1015.87 1015.77 1015.72 1015.69 1015.67 1015.65 1015.63 1015.62 1015.64 1015.72 1015.86 1016.07 1016.34 1016.63 1016.92 1017.17 1017.35 1017.45
1013.41 1013.61 1013.85 1014.19 1014.67 1015.28 1016.00 1016.77 1017.53 1018.22 1018.80 1019.23 1019.51 1019.67 1019.71 1019.69 1019.63 1019.56 1019.48 1019.41 1019.32 1019.19 1019.01 1018.78 1018.47 1018.11 1017.71 1017.30 1016.90 1016.55 1016.24 1015.98 1015.78 1015.60 1015.44 1015.30 1015.17 1015.06 1015.00 1015.01 1015.10 1015.29 1015.56 1015.90 1016.27 1016.64 1016.97 1017.23 1017.41
1013.93 1014.10 1014.35 1014.74 1015.28 1015.95 1016.72 1017.51 1018.25 1018.90 1019.40 1019.76 1019.97 1020.08 1020.11 1020.10 1020.08 1020.06 1020.03 1019.98 1019.90 1019.76 1019.55 1019.26 1018.91 1018.52 1018.09 1017.66 1017.25 1016.85 1016.49 1016.16 1015.84 1015.53 1015.23 1014.96 1014.70 1014.51 1014.38 1014.36 1014.46 1014.67 1014.99 1015.39 1015.83 1016.27 1016.67 1017.01 1017.27
1014.48 1014.62 1014.88 1015.31 1015.90 1016.62 1017.41 1018.20 1018.91 1019.49 1019.91 1020.19 1020.34 1020.41 1020.44 1020.45 1020.46 1020.47 1020.47 1020.43 1020.33 1020.16 1019.91 1019.59 1019.21 1018.80 1018.38 1017.96 1017.56 1017.16 1016.77 1016.38 1015.97 1015.54 1015.11 1014.70 1014.33 1014.03 1013.84 1013.78 1013.86 1014.07 1014.40 1014.83 1015.30 1015.78 1016.24 1016.65 1016.98
1014.92 1015.06 1015.35 1015.82 1016.46 1017.22 1018.03 1018.79 1019.45 1019.96 1020.30 1020.51 1020.60 1020.64 1020.66 1020.69 1020.72 1020.76 1020.76 1020.71 1020.59 1020.37 1020.08 1019.73 1019.34 1018.94 1018.55 1018.17 1017.81 1017.44 1017.06 1016.63 1016.16 1015.64 1015.10 1014.57 1014.09 1013.70 1013.43 1013.31 1013.35 1013.53 1013.84 1014.25 1014.71 1015.20 1015.67 1016.11 1016.50
1015.19 1015.34 1015.68 1016.22 1016.92 1017.73 1018.54 1019.28 1019.89 1020.32 1020.58 1020.70 1020.74 1020.75 1020.77 1020.80 1020.86 1020.90 1020.91 1020.84 1020.68 1020.42 1020.09 1019.71 1019.31 1018.94 1018.59 1018.28 1017.98 1017.67 1017.32 1016.90 1016.39 1015.82 1015.20 1014.59 1014.02 1013.55 1013.20 1013.02 1012.99 1013.11 1013.35 1013.69 1014.10 1014.54 1014.99 1015.43 1015.84
1015.26 1015.47 1015.91 1016.54 1017.33 1018.18 1019.01 1019.72 1020.25 1020.59 1020.76 1020.80 1020.78 1020.76 1020.76 1020.81 1020.88 1020.93 1020.93 1020.84 1020.65 1020.35 1019.98 1019.58 1019.19 1018.84 1018.55 1018.31 1018.09 1017.85 1017.55 1017.15 1016.65 1016.06 1015.41 1014.74 1014.11 1013.57 1013.16 1012.90 1012.79 1012.82 1012.96 1013.20 1013.50 1013.84 1014.23 1014.63 1015.05
1015.21 1015.54 1016.10 1016.87 1017.76 1018.67 1019.50 1020.16 1020.61 1020.84 1020.90 1020.84 1020.76 1020.69 1020.68 1020.73 1020.82 1020.89 1020.89 1020.79 1020.57 1020.25 1019.85 1019.43 1019.04 1018.72 1018.47 1018.29 1018.14 1017.96 1017.72 1017.37 1016.90 1016.31 1015.65 1014.96 1014.31 1013.72 1013.26 1012.93 1012.74 1012.66 1012.68 1012.78 1012.95 1013.16 1013.44 1013.78 1014.16
1015.16 1015.65 1016.39 1017.31 1018.31 1019.27 1020.09 1020.70 1021.04 1021.14 1021.07 1020.90 1020.72 1020.60 1020.57 1020.63 1020.74 1020.83 1020.85 1020.76 1020.53 1020.19 1019.77 1019.34 1018.94 1018.63 1018.40 1018.26 1018.15 1018.02 1017.83 1017.52 1017.08 1016.52 1015.87 1015.19 1014.53 1013.93 1013.43 1013.05 1012.77 1012.59 1012.48 1012.44 1012.46 1012.53 1012.68 1012.92 1013.25
1015.25 1015.94 1016.86 1017.93 1019.03 1020.04 1020.83 1021.35 1021.57 1021.52 1021.30 1021.00 1020.73 1020.55 1020.49 1020.55 1020.68 1020.81 1020.86 1020.79 1020.58 1020.23 1019.80 1019.35 1018.94 1018.60 1018.37 1018.22 1018.12 1018.01 1017.83 1017.55 1017.14 1016.61 1015.99 1015.34 1014.70 1014.10 1013.59 1013.17 1012.83 1012.55 1012.33 1012.15 1012.02 1011.95 1011.97 1012.10 1012.35
1015.57 1016.44 1017.54 1018.74 1019.92 1020.94 1021.69 1022.10 1022.18 1021.97 1021.60 1021.16 1020.79 1020.55 1020.47 1020.53 1020.69 1020.86 1020.96 1020.92 1020.73 1020.39 1019.95 1019.47 1019.02 1018.65 1018.38 1018.19 1018.05 1017.92 1017.73 1017.44 1017.04 1016.54 1015.95 1015.33 1014.72 1014.15 1013.64 1013.20 1012.82 1012.47 1012.15 1011.86 1011.60 1011.40 1011.29 1011.31 1011.47
1016.12 1017.15 1018.37 1019.66 1020.88 1021.88 1022.55 1022.85 1022.79 1022.44 1021.92 1021.37 1020.91 1020.61 1020.51 1020.58 1020.77 1020.98 1021.12 1021.12 1020.95 1020.62 1020.17 1019.67 1019.17 1018.74 1018.40 1018.14 1017.93 1017.74 1017.50 1017.19 1016.78 1016.28 1015.72 1015.13 1014.55 1014.00 1013.51 1013.08 1012.67 1012.28 1011.90 1011.52 1011.16 1010.84 1010.63 1010.54 1010.62
1016.83 1017.94 1019.23 1020.56 1021.76 1022.71 1023.30 1023.49 1023.30 1022.83 1022.20 1021.57 1021.04 1020.71 1020.60 1020.69 1020.90 1021.14 1021.32 1021.35 1021.20 1020.87 1020.41 1019.87 1019.32 1018.82 1018.39 1018.04 1017.74 1017.46 1017.16 1016.79 1016.35 1015.84 1015.29 1014.72 1014.16 1013.65 1013.18 1012.75 1012.35 1011.94 1011.52 1011.08 1010.65 1010.26 1009.96 1009.78 1009.77
1017.56 1018.69 1019.97 1021.26 1022.41 1023.28 1023.77 1023.87 1023.60 1023.06 1022.38 1021.72 1021.17 1020.84 1020.73 1020.83 1021.06 1021.32 1021.50 1021.54 1021.40 1021.07 1020.59 1020.02 1019.41 1018.84 1018.32 1017.88 1017.48 1017.10 1016.71 1016.28 1015.79 1015.25 1014.69 1014.12 1013.58 1013.09 1012.64 1012.23 1011.84 1011.43 1011.00 1010.54 1010.07 1009.63 1009.26 1009.01 1008.93
1018.18 1019.24 1020.44 1021.64 1022.69 1023.46 1023.88 1023.92 1023.62 1023.08 1022.42 1021.78 1021.27 1020.96 1020.88 1020.98 1021.21 1021.46 1021.64 1021.66 1021.51 1021.16 1020.66 1020.06 1019.41 1018.77 1018.19 1017.65 1017.16 1016.69 1016.21 1015.70 1015.15 1014.57 1013.97 1013.39 1012.85 1012.36 1011.93 1011.54 1011.16 1010.76 1010.34 1009.88 1009.40 1008.94 1008.53 1008.23 1008.09
1018.58 1019.52 1020.58 1021.63 1022.55 1023.23 1023.60 1023.63 1023.36 1022.88 1022.31 1021.76 1021.33 1021.08 1021.03 1021.14 1021.35 1021.56 1021.70 1021.69 1021.49 1021.12 1020.60 1019.97 1019.30 1018.63 1017.99 1017.39 1016.83 1016.27 1015.71 1015.11 1014.49 1013.84 1013.20 1012.58 1012.01 1011.51 1011.08 1010.69 1010.33 1009.96 1009.56 1009.12 1008.66 1008.20 1007.78 1007.45 1007.26
1018.75 1019.52 1020.40 1021.29 1022.08 1022.67 1023.00 1023.07 1022.89 1022.53 1022.10 1021.69 1021.38 1021.21 1021.20 1021.31 1021.48 1021.64 1021.70 1021.63 1021.38 1020.98 1020.43 1019.79 1019.11 1018.43 1017.76 1017.13 1016.51 1015.88 1015.24 1014.56 1013.85 1013.12 1012.40 1011.73 1011.11 1010.58 1010.13 1009.74 1009.39 1009.05 1008.68 1008.28 1007.86 1007.42 1007.01 1006.67 1006.45
Thickness
5831 5830 5827 5816 5794 5773 5769 5786 5799 5806 5811 5821 5825 5818 5806 5797 5786 5776 5799 5805 5801 5796 5794 5792 5790 5789 5787 5785 5784 5782 5781 5779 5778 5778 5777 5776 5776 5775 5774 5774 5774 5774 5774 5773 5772 5772 5772 5771 5770
5832 5830 5820 5803 5775 5755 5767 5792 5800 5811 5819 5826 5825 5819 5808 5800 5805 5800 5801 5803 5801 5798 5795 5793 5791 5789 5787 5785 5783 5782 5780 5779 5777 5776 5776 5775 5774 5773 5773 5772 5771 5771 5771 5771 5770 5770 5770 5769 5768
5833 5830 5808 5788 5771 5762 5774 5799 5808 5819 5828 5827 5820 5819 5810 5802 5806 5804 5806 5805 5801 5798 5796 5793 5791 5788 5786 5784 5783 5781 5780 5778 5776 5775 5775 5774 5773 5772 5771 5771 5770 5769 5769 5769 5768 5768 5768 5768 5767
5828 5815 5801 5779 5772 5785 5796 5807 5816 5817 5822 5827 5821 5809 5812 5819 5816 5812 5810 5806 5802 5798 5796 5794 5791 5788 5786 5784 5782 5780 5779 5777 5776 5774 5773 5773 5772 5771 5770 5769 5768 5767 5767 5767 5767 5767 5768 5769 5767
5822 5800 5780 5767 5777 5797 5810 5819 5823 5817 5815 5819 5818 5802 5801 5818 5822 5816 5810 5807 5803 5799 5796 5794 5791 5788 5786 5783 5781 5780 5778 5776 5775 5773 5772 5771 5770 5769 5768 5767 5766 5766 5765 5765 5765 5765 5766 5767 5765
5804 5790 5765 5759 5779 5802 5815 5824 5823 5818 5815 5817 5814 5802 5800 5816 5816 5812 5811 5807 5804 5800 5796 5793 5790 5787 5785 5783 5781 5779 5777 5775 5774 5772 5770 5769 5768 5768 5767 5766 5764 5764 5763 5763 5763 5762 5763 5763 5762
5796 5782 5769 5774 5780 5793 5814 5829 5824 5817 5815 5818 5820 5801 5799 5809 5814 5814 5811 5807 5803 5799 5796 5792 5790 5787 5784 5782 5780 5778 5776 5774 5772 5771 5769 5767 5766 5766 5765 5764 5763 5762 5762 5761 5761 5761 5760 5759 5759
5808 5786 5776 5777 5782 5792 5817 5827 5829 5824 5819 5828 5824 5803 5796 5808 5816 5813 5807 5803 5800 5797 5794 5791 5789 5786 5784 5781 5779 5777 5775 5773 5771 5770 5768 5767 5766 5764 5763 5763 5762 5761 5760 5759 5759 5759 5757 5757 5756
5814 5778 5768 5780 5789 5799 5819 5820 5825 5833 5827 5824 5825 5820 5819 5820 5815 5806 5799 5795 5793 5792 5792 5791 5788 5785 5783 5781 5779 5776 5774 5772 5771 5769 5767 5766 5764 5763 5762 5761 5760 5760 5759 5757 5757 5756 5756 5755 5754
5799 5773 5785 5804 5810 5811 5817 5819 5821 5818 5813 5812 5814 5819 5822 5817 5810 5802 5796 5791 5789 5788 5789 5790 5789 5786 5783 5781 5779 5776 5773 5771 5769 5768 5766 5765 5763 5762 5761 5759 5758 5758 5758 5756 5755 5754 5753 5753 5752
5801 5791 5804 5815 5822 5821 5817 5818 5824 5811 5800 5806 5807 5810 5813 5811 5806 5801 5798 5796 5793 5792 5790 5789 5788 5786 5783 5781 5778 5775 5772 5770 5768 5766 5765 5763 5761 5759 5758 5758 5756 5755 5755 5753 5752 5751 5750 5750 5749
5802 5808 5815 5819 5827 5824 5819 5818 5816 5813 5811 5820 5820 5818 5813 5807 5804 5801 5798 5796 5794 5792 5790 5790 5789 5786 5784 5781 5777 5774 5771 5769 5767 5765 5764 5762 5759 5758 5757 5755 5754 5753 5752 5750 5749 5748 5748 5747 5747
5801 5807 5819 5824 5826 5826 5824 5816 5814 5813 5822 5824 5820 5814 5810 5807 5805 5804 5803 5799 5796 5792 5791 5790 5789 5787 5784 5780 5777 5774 5771 5768 5766 5764 5763 5761 5759 5756 5755 5753 5752 5751 5750 5748 5747 5746 5745 5745 5744
5803 5809 5815 5819 5821 5823 5816 5813 5812 5812 5821 5818 5813 5809 5809 5807 5805 5802 5799 5796 5794 5794 5791 5790 5788 5787 5784 5780 5776 5773 5771 5768 5765 5763 5762 5760 5758 5756 5753 5751 5750 5749 5748 5746 5745 5744 5743 5743 5743
5807 5800 5804 5812 5816 5818 5815 5798 5805 5815 5817 5811 5809 5808 5806 5806 5805 5801 5800 5798 5797 5795 5792 5789 5788 5786 5783 5779 5776 5773 5770 5768 5765 5763 5761 5759 5757 5755 5753 5750 5748 5747 5746 5745 5743 5742 5741 5740 5740
5794 5784 5778 5800 5810 5813 5801 5778 5803 5815 5811 5805 5805 5805 5803 5802 5803 5803 5802 5800 5798 5796 5791 5789 5788 5784 5781 5778 5775 5772 5769 5767 5764 5762 5760 5758 5756 5754 5752 5749 5747 5746 5745 5743 5741 5740 5738 5737 5736
5769 5761 5768 5786 5806 5806 5794 5781 5801 5812 5808 5802 5802 5802 5800 5799 5801 5802 5802 5801 5798 5796 5792 5788 5787 5783 5780 5777 5774 5771 5768 5765 5763 5761 5758 5756 5754 5753 5751 5748 5746 5745 5743 5741 5740 5737 5736 5733 5733
5751 5760 5767 5774 5795 5797 5786 5784 5797 5806 5806 5800 5799 5800 5798 5798 5799 5802 5802 5801 5799 5796 5792 5789 5786 5782 5779 5775 5772 5768 5765 5763 5761 5759 5757 5755 5753 5751 5749 5746 5745 5743 5741 5738 5737 5735 5734 5732 5732
5765 5762 5761 5775 5795 5788 5780 5780 5789 5799 5799 5797 5796 5796 5796 5797 5802 5803 5802 5800 5797 5793 5790 5787 5784 5780 5777 5773 5768 5764 5760 5759 5758 5757 5756 5753 5751 5749 5747 5745 5743 5741 5738 5736 5734 5732 5730 5729 5730
5762 5755 5757 5771 5789 5784 5774 5776 5789 5795 5796 5798 5796 5795 5794 5794 5795 5797 5798 5798 5795 5791 5788 5785 5782 5780 5777 5774 5770 5766 5761 5758 5757 5755 5754 5752 5749 5748 5746 5743 5740 5739 5736 5734 5732 5730 5727 5726 5727
5757 5754 5758 5761 5774 5778 5770 5760 5773 5788 5796 5799 5800 5799 5797 5797 5795 5795 5793 5792 5791 5789 5787 5785 5782 5779 5776 5773 5768 5764 5759 5755 5753 5751 5750 5749 5748 5746 5743 5742 5740 5737 5735 5732 5730 5729 5726 5723 5723
5747 5768 5770 5766 5752 5742 5755 5728 5756 5773 5780 5787 5790 5792 5793 5797 5796 5794 5793 5791 5790 5789 5788 5784 5780 5777 5774 5771 5766 5760 5755 5750 5750 5749 5748 5747 5745 5743 5741 5740 5738 5736 5734 5731 5730 5728 5726 5723 5719
5759 5774 5769 5764 5750 5739 5744 5730 5741 5765 5765 5776 5785 5790 5793 5795 5795 5793 5793 5792 5791 5789 5785 5782 5778 5774 5772 5768 5764 5759 5754 5752 5750 5748 5745 5744 5743 5741 5739 5738 5736 5734 5732 5730 5728 5726 5724 5722 5719
5771 5764 5757 5745 5731 5716 5734 5726 5727 5751 5766 5775 5783 5788 5791 5794 5793 5792 5792 5791 5788 5786 5782 5779 5774 5770 5768 5765 5762 5758 5753 5750 5747 5744 5741 5740 5739 5738 5737 5736 5734 5732 5730 5728 5727 5725 5723 5721 5719
5756 5729 5707 5705 5697 5705 5732 5726 5730 5760 5775 5779 5781 5784 5788 5791 5789 5787 5786 5784 5783 5781 5778 5775 5770 5766 5765 5762 5759 5756 5753 5750 5746 5743 5740 5737 5735 5734 5734 5733 5731 5730 5728 5727 5725 5723 5721 5719 5717
5744 5728 5700 5689 5689 5703 5723 5719 5739 5767 5778 5784 5785 5785 5786 5785 5785 5785 5783 5782 5781 5777 5774 5771 5767 5764 5762 5759 5756 5754 5752 5748 5745 5743 5740 5737 5735 5733 5732 5730 5729 5727 5726 5724 5722 5720 5719 5718 5716
5738 5727 5728 5707 5705 5698 5706 5725 5744 5762 5766 5771 5774 5776 5776 5778 5780 5779 5779 5779 5778 5775 5772 5769 5765 5761 5759 5757 5754 5751 5749 5746 5743 5741 5739 5736 5734 5732 5730 5728 5726 5725 5723 5721 5719 5717 5715 5714 5713
5747 5736 5713 5700 5689 5685 5699 5711 5718 5739 5748 5759 5764 5767 5770 5772 5773 5774 5773 5774 5774 5773 5770 5766 5763 5759 5756 5754 5752 5749 5746 5743 5741 5738 5735 5733 5731 5729 5727 5725 5723 5722 5720 5718 5716 5713 5712 5711 5709
5732 5727 5714 5699 5696 5684 5683 5700 5738 5741 5747 5751 5759 5764 5766 5767 5768 5768 5768 5768 5768 5766 5763 5760 5757 5754 5752 5750 5748 5745 5743 5740 5737 5734 5732 5730 5727 5726 5723 5722 5720 5718 5716 5714 5712 5710 5708 5706 5705
5735 5726 5711 5694 5691 5691 5686 5700 5746 5748 5749 5751 5754 5760 5763 5764 5764 5763 5761 5760 5759 5757 5756 5754 5753 5750 5748 5746 5743 5741 5738 5735 5732 5730 5728 5727 5724 5722 5720 5718 5716 5715 5713 5711 5709 5707 5705 5702 5700